Home   Weather   Singen (Hohentwiel)   Past weeks

Flag for Germany Past Weather in Singen (Hohentwiel), Baden-Württemberg, Germany — Yesterday and Last 2 Weeks

Now
46 °F

Scattered clouds.


Feels Like: 44 °F
Forecast: 30 / 64 °F
Wind: 5 mph from Northeast

Location: Zurich-Kloten

Current Time: Apr 23, 2017 at 10:31:32 am

Latest Report: Apr 23, 2017 at 9:50 am


Visibility: N/A

Pressure: 30.24 "Hg

Humidity: 57%

Dew Point: 32 °F

Location of Singen (Hohentwiel)Location

Past Weather in Singen (Hohentwiel) — Graph

°F

Singen (Hohentwiel) Temperature Yesterday

Maximum temperature yesterday: 59 °F (at 12:50 pm)
Minimum temperature yesterday: 30 °F (at 5:50 am)
Average temperature yesterday: 47 °F

High & Low Weather Summary for the Past Weeks

 TemperatureHumidityPressure
High75 °F (Apr 9, 5:50 pm)100% (Apr 18, 1:50 am)30.51 "Hg (Apr 18, 1:50 am)
Low25 °F (Apr 21, 4:50 am)22% (Apr 9, 6:20 pm)29.95 "Hg (Apr 13, 5:20 pm)
Average48 °F66%30.19 "Hg
* Reported Apr 8 9:20 am — Apr 23 9:20 am, Singen (Hohentwiel), Weather by CustomWeather, © 2017

Note: Actual official high and low records may vary slightly from our data, if they occured in-between our weather recording intervals... More about our weather records

Advertising

Singen (Hohentwiel) Weather History for the Previous 24 Hours

Scroll right to see more
 ConditionsComfort  
Time TempWeatherWind HumidityBarometerVisibility
9:20 am
Sun, Apr 23
46 °FScattered clouds.6 mph57%30.24 "HgN/A
8:50 am46 °FPartly sunny.6 mph62%30.24 "HgN/A
8:20 am43 °FPartly sunny.6 mph71%30.24 "HgN/A
7:50 am43 °FPartly sunny.5 mph76%30.24 "HgN/A
7:20 am41 °FPartly sunny.3 mph81%30.21 "HgN/A
6:50 am41 °FPartly sunny.3 mph76%30.21 "HgN/A
6:20 am43 °FPassing clouds.2 mph71%30.21 "HgN/A
5:50 am43 °FPassing clouds.2 mph71%30.21 "HgN/A
5:20 am43 °FPartly cloudy.2 mph76%30.21 "HgN/A
4:50 am43 °FPassing clouds.3 mph76%30.21 "HgN/A
4:20 am43 °FPassing clouds.5 mph81%30.21 "HgN/A
3:50 am43 °FLight rain. Passing clouds.5 mph81%30.21 "HgN/A
3:20 am45 °FLight rain. Passing clouds.3 mph71%30.21 "HgN/A
2:50 am45 °FLight rain. Passing clouds.2 mph71%30.21 "HgN/A
1:50 am46 °FPassing clouds.7 mph71%30.21 "HgN/A
1:20 am46 °FPassing clouds.10 mph76%30.21 "HgN/A
12:50 am48 °FPassing clouds.9 mph71%30.21 "HgN/A
12:20 am50 °FPassing clouds.6 mph67%30.21 "HgN/A
11:50 pm
Sat, Apr 22
50 °FPassing clouds.3 mph67%30.21 "HgN/A
11:20 pm50 °FPartly cloudy.5 mph62%30.21 "HgN/A
10:50 pm50 °FPartly cloudy.6 mph62%30.21 "HgN/A
10:20 pm52 °FPartly cloudy.5 mph58%30.21 "HgN/A
9:50 pm50 °FPassing clouds.3 mph62%30.18 "HgN/A
9:20 pm52 °FPartly cloudy.6 mph58%30.18 "HgN/A
8:50 pm50 °FPassing clouds.5 mph62%30.18 "HgN/A
8:20 pm54 °FPartly sunny.8 mph51%30.18 "HgN/A
7:50 pm54 °FPartly sunny.10 mph51%30.18 "HgN/A
7:20 pm54 °FPartly sunny.5 mph51%30.18 "HgN/A
6:50 pm54 °FPartly sunny.8 mph51%30.18 "HgN/A
6:20 pm55 °FPartly sunny.8 mph47%30.18 "HgN/A
5:50 pm55 °FPartly sunny.8 mph47%30.18 "HgN/A
5:20 pm57 °FPartly sunny.10 mph41%30.18 "HgN/A
4:50 pm57 °FBroken clouds.14 mph44%30.18 "HgN/A
4:20 pm59 °FBroken clouds.14 mph42%30.18 "HgN/A
3:50 pm59 °FPartly sunny.14 mph42%30.18 "HgN/A
3:20 pm59 °FScattered clouds.14 mph42%30.21 "HgN/A
2:50 pm59 °FScattered clouds.14 mph39%30.21 "HgN/A
2:20 pm59 °FScattered clouds.14 mph42%30.21 "HgN/A
1:50 pm59 °FScattered clouds.13 mph39%30.21 "HgN/A
1:20 pm59 °FScattered clouds.15 mph34%30.24 "HgN/A
12:50 pm59 °FScattered clouds.16 mph36%30.24 "HgN/A
12:20 pm57 °FPassing clouds.12 mph39%30.24 "HgN/A
11:50 am55 °FPassing clouds.7 mph44%30.27 "HgN/A
11:20 am55 °FPassing clouds.5 mph44%30.27 "HgN/A
10:50 am54 °FSunny.3 mph44%30.27 "Hg10 mi
10:20 am50 °FSunny.3 mph50%30.30 "Hg10 mi
Weather by CustomWeather, © 2017

See weather overviewHow to use our weather pages